Regional Weather Roundup
Issued by NWS Bismarck, ND

Home | Current Version | Previous Version | Text Only | Print | Product List | Glossary On
Versions: 1 2 3 4 5 6 7 8 9 10 11 12 13 14 15 16 17 18 19 20 21 22 23 24 25 26 27 28 29 30 31 32 33 34 35 36 37 38 39 40 41 42 43 44 45 46 47 48 49 50
000
ASUS43 KBIS 261210
RWRBIS

NWR BROADCAST TEXT
NATIONAL WEATHER SERVICE BISMARCK ND
700 AM CDT SUN MAR 26 2017

NOTE: "FAIR" INDICATES FEW OR NO CLOUDS BELOW 12,000 FEET WITH NO
SIGNIFICANT WEATHER AND/OR OBSTRUCTIONS TO VISIBILITY.


CITY           SKY/WX    TMP DP  RH WIND       PRES   REMARKS
WILLISTON      FAIR      35  32  88 CALM      29.89S
MINOT          FAIR      38  33  82 SW8       29.89S
MINOT AFB      FAIR      33  32  94 W7        29.88S
BISMARCK       CLOUDY    37  34  89 E3        29.93S
DICKINSON      MOCLDY    38  34  85 W3        29.88S
GARRISON         N/A     35  32  88 N5        29.89S
HETTINGER ARPT CLOUDY    41  36  82 E6        29.91R
JAMESTOWN      FOG       33  33 100 S5        29.94R VSB 1/2
HAZEN          CLOUDY    37  36  93 CALM      29.91F
LINTON           N/A     36  36 100 CALM      29.95S FOG
MANDAN         CLOUDY    36  36 100 S3        29.92S
RUGBY            N/A     34  34 100 CALM      29.90R
STANLEY        PTSUNNY   34  34 100 CALM      29.91S
TIOGA          FAIR      34  34 100 NE5       29.91R
WATFORD CITY   FAIR      37  32  81 CALM      29.89S
$$

CITY           SKY/WX    TMP DP  RH WIND       PRES   REMARKS
GRAND FORKS    CLOUDY    34  33  96 SW10      29.96F
GRAND FORKS AF CLOUDY    33  33  99 S9        29.95F
DEVILS LAKE    CLOUDY    33  32  96 NW5       29.92R
FARGO          CLOUDY    34  33  96 CALM      29.98S FOG
CAVALIER         N/A     34  32  93 S8        29.93S
GRAFTON        PTSUNNY   34  34 100 S13       29.96S
GWINNER        CLOUDY    34  34 100 MISG      29.96S FOG
LANGDON        CLOUDY    32  32 100 S5        29.92R FOG
ROLLA          CLOUDY    34  34 100 NW7       29.90S
$$

CITY           SKY/WX    TMP DP  RH WIND       PRES   REMARKS
ABERDEEN       CLOUDY    35  33  92 NE5       29.94F FOG
MOBRIDGE       FOG       39  36  89 CALM      29.90R VSB 1
BUFFALO          N/A     43  37  79 N18       29.82S
RAPID CITY     CLOUDY    41  35  79 N22       29.82F
GLASGOW        FAIR      31  26  82 NW9       29.89R
SIDNEY         FAIR      35  30  82 CALM      29.90R
WOLF POINT     FAIR      31  27  85 N6        29.88S
GLENDIVE       FAIR      43  35  73 S3        29.91R
MILES CITY     FAIR      40  35  83 S6        29.91S
BAKER          CLOUDY    40  37  89 S7        29.91R
$$

CITY           SKY/WX    TMP DP  RH WIND       PRES   REMARKS
BILLINGS       FAIR      37  33  85 SW7       29.92R
GREAT FALLS    FAIR      34  21  59 SW12      29.91F
REGINA         PTCLDY    34  32  93 SE9       29.86R
ESTEVAN        MOCLDY    34  32  93 S6        29.89S
$$





USA.gov is the U.S. government's official web portal to all federal, state and local government web resources and services.